CZ-6A DEB, 54600

Orbit data source: Space-Track

CZ-6A DEB, 54600 is space debris in SSO originally from a launch on Fri, 11 Nov 2022 UTC launched from the Taiyaun Space Center, China (TSC). Debris objects in space refer to the collection of defunct objects orbiting the Earth. Examples of debris include non-operational satellites, rocket bodies, and fragments generated from explosions, collisions, or faulty payload assembly.

Loading next visibility...
Identifier
54600, 2022-151NA
Orbit
SSO
Country
Flag of CNCN / PRC
Related business
Manufacturer
SAST
Mission
Spacecraft
Bus & Motor
Unknown
Mass
Unknown
Launch date (UTC)
2022-11-11 (3 years ago)
Launch vehicle
Unknown
Launch site
Taiyaun Space Center, China (TSC)
Object type
Payload
Rocket body
Debris
Shape & HBR
Unknown shape, 0.1 m
Radar Cross Section
Small (<0.1 m²)

Expand to show TLE details & history
Last TLE update: 18 hours ago

TLE from 18 hours ago
0 CZ-6A DEB
1 54600U 22151NA  25352.11372322  .00010645  00000-0  17909-2 0  9998
2 54600  98.6201  41.1479 0072631 126.5816 234.2100 14.68026263163625
Epoch: 2025-12-18T02:43Z
TLE epoch observation values (Epoch: 2025-12-18T02:43:45.686Z)
Latitude
0.00003°
Longitude
-86.76635°
Altitude
700.535 km
Speed
7.49 km/s
True Right ascension
02h 44m 35s
True Declination
0° 00' 00"
Sunlit
Object was in full shadow at epoch
Visualization orbit readout
Latitude
Unknown
Longitude
Unknown
Altitude
Unknown
Speed
Unknown
Apparent Right ascension
Unknown
Apparent Declination
Unknown
Sunlit
N/A
Visualization observer readout
Local Sidereal Time
19:59:41
Azimuth
Unknown
Elevation
Unknown
Doppler factor
Unknown
Orbital elements
Apogee altitude
715.617 km
Perigee altitude
613.315 km
Semi-major axis
7,042.603 km
Eccentricity
0.00726
Inclination
98.6201°
RAAN
41.1479°
Arg. of periapsis
126.5816°
True anomaly
233.53846°
Mean anomaly
234.21°
Eccentric anomaly
233.87387°
Mean motion
3.67234 °/min
Orbital period
98.03 mins
BSTAR
0.0017909
Loading maneuver chart data...
Computing Atmospheric mass density...
Loading historical data...
Loading historical data...
Loading historical data...
Loading historical data...
Loading historical data...
Loading historical data...
Loading historical data...

Documentation

Showing up to 5 results
|